Regional Weather Roundup
Issued by NWS New Orleans/Baton Rouge, LA

Home | Current Version | Previous Version | Text Only | Print | Product List | Glossary On
Versions: 1 2 3 4 5 6 7 8 9 10 11 12 13 14 15 16 17 18 19 20 21 22 23 24 25 26 27 28 29 30 31 32 33 34 35 36 37 38 39 40 41 42 43 44 45 46 47 48 49 50
642
ASUS44 KLIX 181905
RWRLIX
NEW ORLEANS REGIONAL WEATHER ROUNDUP
NATIONAL WEATHER SERVICE NEW ORLEANS LA
200 PM CDT FRI APR 18 2014

NOTE: "FAIR" INDICATES FEW OR NO CLOUDS BELOW 12,000 FEET WITH NO
      SIGNIFICANT WEATHER AND/OR OBSTRUCTIONS TO VISIBILITY.
      SKY/WX - SKY CONDITION AND SIGNIFICANT WEATHER.
      TMP - AIR TEMPERATURE.     DP    - DEWPOINT TEMPERATURE.
      RH  - RELATIVE HUMIDITY.   PRES  - PRESSURE.
      HI  - HEAT INDEX.          WCI   - WIND CHILL INDEX.

*  THESE STATIONS ARE NOT NWS OR FAA STATIONS AND ARE NOT UNDER
   NWS QUALITY CONTROL.

LAZ038-040-048-061>063-065>067-069-182000-
SOUTHEAST LOUISIANA

CITY           SKY/WX    TMP DP  RH WIND       PRES   REMARKS
N.O. AUDUBON     N/A     76  59  54 MISG        N/A
N.O. INTL ARPT MOSUNNY   73  60  63 NE18G28   30.06F
N.O. LAKEFRONT MOSUNNY   70  60  70 NE16      30.08F
N.O. DOWNTOWN*   N/A     72  55  56 N9G20     30.07S
SLIDELL        PTSUNNY   70  58  65 N16G25    30.07F
BATON ROUGE    PTSUNNY   79  56  45 NE14G21   30.07F
BOOTHVILLE     CLOUDY    65  60  84 N9G17     30.05S
BELLE CHASSE   PTSUNNY   72  57  59 NE14G22   30.06S
BOGALUSA*        N/A     69  58  67 NE14      30.11F
GALLIANO*      MOCLDY    73  60  63 N18G24    30.05F
NEW ROADS*       N/A     74  60  61 NW8       30.09S
GONZALES*      MOCLDY    77  60  54 N8        30.05F
HAMMOND*       MOSUNNY   77  55  47 N13G20    30.08F
HOUMA*         MOSUNNY   77  55  47 N16       30.05F
PORT FOURCHON* CLOUDY    70  61  73 N16G22    30.07S

$$

MSZ070-080>082-182000-
SOUTHERN MISSISSIPPI

CITY           SKY/WX    TMP DP  RH WIND       PRES   REMARKS
MCCOMB         MOSUNNY   72  56  57 NE8G20    30.10F
GULFPORT       CLOUDY    70  58  65 N14G23    30.04F
BILOXI         CLOUDY    68  59  73 NE14G24   30.04F
PASCAGOULA     CLOUDY    63  58  83 N15G23    30.05R
STENNIS ARPT*    N/A     64  57  77 N15       30.07F

$$

COASTAL OBSERVATIONS
LAKE AND NEARSHORE STATIONS

STATION/POSITION TIME  TEMP    WIND        PRES    WAVE
                       AIR SEA DIR/SP/G            HT/PER
                 (UTC) (F)     (DEG/KT/KT) (MB)    (FT/S)
PASCAGOULA       1900   64      30/ 13/ 17 1016.5
WAVELAND YACHT   1900   65 67  360/ 14/ 22 1017.1
GRAND ISLE       1900   68 67   20/ 14/ 19 1018.0
SOUTHWEST PASS   1900   65 58   10/ 15/ 19 1017.7
NEW CANAL        1900   67 64   40/ 14/ 16 1018.5
SHELL BEACH      1900   65 62  360/ 17/ 19 1017.7

OFFSHORE STATIONS

STATION/POSITION TIME  TEMP    WIND        PRES    WAVE
                       AIR SEA DIR/SP/G            HT/PER
                 (UTC) (F)     (DEG/KT/KT) (MB)    (FT/S)
64 S DAUPHIN ISL 1832   65 71   20/ 23/ 29 1015.6

$$




USA.gov is the U.S. government's official web portal to all federal, state and local government web resources and services.